This demonstration page uses our WeatherBlox Daily Observations layout. Learn more.

Left ArrowRight Arrow

34.16533, -84.80231

Hourly Observations for February 18, 2015

Temp ( °F °C ) Dew Point ( °F °C ) Humidity (%) Winds ( mph kmh ) Pressure ( in mb ) Visibility ( mi km ) Precip ( " mm )
12:53 am 00:53 Clear 24 -4.4 18 -7.8 77 77 Calm 30.06 1018 10 16 0.00 0.00
1:53 am 01:53 Clear 22 -5.6 17 -8.3 82 82 Calm 30.06 1018 10 16 0.00 0.00
2:53 am 02:53 Clear 21 -6.1 17 -8.3 85 85 Calm 30.04 1017 10 16 0.00 0.00
3:53 am 03:53 Clear 21 -6.1 16 -8.9 81 81 Calm 30.02 1017 10 16 0.00 0.00
4:53 am 04:53 Clear 21 -6.1 16 -8.9 81 81 Calm 30.03 1017 10 16 0.00 0.00
5:53 am 05:53 Mostly Cloudy 20 -6.7 16 -8.9 85 85 Calm 30.03 1017 10 16 0.00 0.00
6:33 am 06:33 Mostly Cloudy 20 -6.7 16 -8.9 85 85 Calm 30.12 1020 10 16 0.00 0.00
6:53 am 06:53 Mostly Cloudy 21 -6.1 16 -8.9 81 81 Calm 30.04 1017 10 16 0.00 0.00
7:53 am 07:53 Cloudy 23 -5 17 -8.3 78 78 VRB 3 6 30.04 1017 10 16 0.00 0.00
8:37 am 08:37 Cloudy 24 -4.4 18 -7.8 77 77 VRB 3 6 30.09 1019 10 16 0.00 0.00
8:53 am 08:53 Cloudy 25 -3.9 19 -7.2 78 78 VRB 3 6 30.05 1018 9 14 0.00 0.00
9:53 am 09:53 Cloudy 27 -2.8 21 -6.1 78 78 VRB 3 6 30.06 1018 10 16 0.00 0.00
10:53 am 10:53 Cloudy 32 0 23 -5 69 69 VRB 3 6 30.05 1018 10 16 0.00 0.00
11:51 am 11:51 Cloudy with Light Snow 32 0 21 -6 64 64 VRB 3 6 30.09 1019 8 13 0.00 0.03
11:53 am 11:53 Cloudy with Light Snow 32 0 23 -5 69 69 Calm 30.06 1018 7 11 0.00 0.03
12:01 pm 12:01 Cloudy with Light Snow 33 0.6 23 -5 66 66 VRB 5 7 30.09 1019 8 13 0.00 0.03
12:45 pm 12:45 Cloudy 33 0.6 21 -6.1 61 61 undefined N/A 30.09 1019 8 13 0.00 0.03
12:51 pm 12:51 Cloudy with Light Snow 32 0 23 -5 69 69 VRB 6 9 30.09 1019 3 4 0.00 0.03
12:52 pm 12:52 Cloudy with Light Snow 32 0 23 -5 69 69 VRB 7 11 30.06 1018 3 4 0.00 0.03
1:00 pm 13:00 Cloudy with Light Snow 33 0.6 22 -5.6 64 64 VRB 5 7 30.09 1019 3 5 0.00 0.03
1:53 pm 13:53 Cloudy 35 1.7 17 -8.3 48 48 VRB 6 9 30.04 1017 10 16 0.00 0.03
2:53 pm 14:53 Mostly Cloudy 36 2.2 16 -8.9 44 44 VRB 7 11 30.05 1018 10 16 0.00 0.00
3:53 pm 15:53 Cloudy 33 0.6 13 -10.6 43 43 VRB 7 11 30.06 1018 10 16 0.00 0.00
4:53 pm 16:53 Mostly Cloudy 31 -0.6 15 -9.4 52 52 VRB 6 9 30.08 1019 10 16 0.00 0.00
5:53 pm 17:53 Mostly Sunny 30 -1.1 8 -13.3 39 39 NW 8 13 30.10 1019 10 16 0.00 0.00
6:53 pm 18:53 Mostly Cloudy 28 -2.2 10 -12.2 47 47 VRB 5 7 30.14 1021 10 16 0.00 0.00
7:53 pm 19:53 Cloudy 26 -3.3 11 -11.7 53 53 undefined N/A 30.16 1021 10 16 0.00 0.00
8:53 pm 20:53 Partly Cloudy 24 -4.4 10 -12.2 55 55 VRB 6 9 30.19 1022 10 16 0.00 0.00
9:53 pm 21:53 Mostly Cloudy with Light Snow 23 -5 12 -11.1 63 63 NNW 8 13 30.23 1024 8 13 0.00 0.03
10:53 pm 22:53 undefined 22 -5.6 5 -15 48 48 VRB 7 11 30.25 1024 10 16 0.00 0.03
11:53 pm 23:53 Mostly Cloudy 21 -6.1 5 -15 50 50 VRB 6 9 30.25 1024 10 16 0.00 0.00

Powered by AerisWeather